Location: Alvarado Division
(32.4457°N, 97.1904°W)
Time: 23:09:54
(UTC+00:00)

Daily predictions for brighter satellites

Satellite Brightness Start Highest point End
(mag) Time Altitude Azimuth Time Altitude Azimuth Time Altitude Azimuth
Milstar 3 Cent rocket 3.6 12:01:50 16° WSW 12:05:29 35° SSW 12:12:51 10° SE
Meteor 2-17 Rocket 4.3 12:00:11 10° N 12:06:15 81° W 12:12:17 10° S
Cosmos 1933 3.3 12:06:49 10° NNW 12:10:42 56° W 12:14:32 10° S
ERS-2 1.6 12:08:34 10° NNE 12:11:30 78° ESE 12:14:24 10° S
Cosmos 1627 Rocket 4.5 12:05:56 10° N 12:12:19 77° W 12:18:37 10° S
SAR-Lupe-2 4.3 12:09:10 10° NNE 12:12:41 55° E 12:16:11 10° S
Cosmos 1862 3.3 12:09:13 10° SSW 12:12:58 51° W 12:16:43 10° N
Cosmos 2151 3.0 12:08:53 10° S 12:13:02 81° E 12:17:15 10° N
COSMO-SKYMED 1 2.7 12:08:58 10° S 12:13:11 52° W 12:17:25 10° NNW
Meteor 2-3 Rocket 4.2 12:08:13 10° SW 12:13:15 34° WNW 12:18:18 10° NNW
PSLV R/B 3.5 12:10:34 10° N 12:14:49 65° WNW 12:19:01 10° SSW
GENESIS II 4.0 12:18:30 10° SSW 12:22:19 82° WNW 12:26:11 10° NNE
USA 215 3.5 12:17:05 10° NNE 12:23:16 48° NW 12:29:28 10° WSW
SJ-7 4.5 12:22:34 10° NNE 12:26:41 85° ESE 12:30:45 10° S
BlueWalker 3 2.0 12:25:35 14° NW 12:28:47 61° SW 12:32:31 10° SSE
ATLAS 2A CENTAUR R/B 3.4 12:32:04 10° WSW 12:34:33 16° SSW 12:36:11 10° SSE
SMAP 3.5 12:32:41 10° NNE 12:37:19 68° E 12:41:56 10° S
Cosmos 1110 Rocket 4.0 12:32:46 10° NNW 12:38:04 76° WSW 12:43:19 10° S
Cosmos 1842 Rocket 3.9 12:34:26 10° N 12:38:52 74° E 12:43:17 10° SSE
BREEZE-M R/B 3.2 12:32:24 10° NW 12:39:11 88° SW 12:42:38 10° SE
Aureole 2 4.3 12:36:43 10° NNW 12:39:44 67° ENE 12:42:35 10° SSE
Cosmos 1437 Rocket 3.0 12:38:04 10° SSW 12:41:35 40° W 12:45:05 10° N
Cosmos 1782 4.2 12:39:29 10° NW 12:42:05 17° W 12:44:40 10° SW
H-2A R/B 3.6 12:40:38 10° NW 12:42:30 12° WNW 12:44:23 10° W
Helios 1B rocket 2.7 12:41:19 10° N 12:45:04 41° WNW 12:48:49 10° SW
CZ-4B R/B 4.1 12:43:47 10° NNE 12:47:50 80° ESE 12:52:01 10° S
DELTA 2 DEB (DPAF) 4.1 12:44:23 10° SSE 12:48:40 90° NNE 12:52:58 10° NNW
Cosmos 1515 4.2 12:46:21 10° NNW 12:49:40 35° W 12:52:57 10° SSW
SL-16 R/B 2.6 23:36:28 10° NNW 23:42:07 73° WSW 23:47:44 10° SSE
APEX 3.7 23:48:47 10° SW 23:51:53 45° WNW 23:54:41 10° N
Cosmos 1943 3.7 23:47:35 10° N 23:52:45 36° ENE 23:57:54 10° SE
Cosmos-2242 3.0 23:49:01 10° S 23:53:20 80° E 23:57:41 10° N
CZ-2D R/B 3.9 23:49:46 10° S 23:53:23 57° W 23:57:00 10° NNW
